Terminal Aerodrome Forecast
Issued by NWS

Home | Current Version | Previous Version | Text Only | Print | Product List | Glossary Off
Versions: 1 2 3 4 5 6 7 8 9 10 11 12 13 14 15 16 17 18

634
FTUS43 KMPX 170531
TAFAXN
TAF
KAXN 170531Z 1706/1806 02012G19KT 6SM RA BR SCT006 BKN040
     FM170800 34015G23KT 4SM -RA BR OVC006
     FM171400 33018G24KT 6SM BR VCSH OVC007
     FM171800 33018G26KT P6SM OVC015
     FM172100 32014G21KT P6SM SCT015 BKN025
     FM180200 32009KT P6SM SCT025 SCT250=

USA.gov is the U.S. government's official web portal to all federal, state and local government web resources and services.